Starlink 6374

operational
NORAD ID: 57338 Int'l Des: 2023-099 Owner: SPXS Country: US Constellation: starlink
LEOCIRCULAR

Über Starlink 6374

Beschreibung wird geladen...

Live-Position

3D-Globus wird geladen...

Nächste Überflüge

Höhenverlauf

Altitude vs Time

uPlot chart will show altitude changes over time

Zweizeiliger Elementsatz

1 57338U 23099L 25350.97648200 .00000007 00000-0 15578-4 0 9997
2 57338 43.0053 338.4718 0001021 264.6654 95.4071 15.02541960133673
Epoch: 16. Dez. 2025 • Age: 8 hours

Aktueller Status

Höhe 559.5 km
Geschwindigkeit 7.59 km/s
Subsatellitenpunkt 25.42°N, 167.11°E
Startdatum 16. Juli 2023
Alter 2.4 years
Typ internet

Technische Details

Klassifizierung Payload
Masse 305.00 kg
Trockenmasse 290.00 kg
Gesamtmasse 305.00 kg
Länge 0.20 m
Durchmesser 2.80 m
Spannweite 9.00 m
Form Box + pan
Hersteller SPXS
Bus-Typ Starlink
Phasenstatus In Orbit
Besitzer/Staat SPXS/US

Große Konstellationen

Loading constellations...